Wind_Speed
24 24 24 24 24 23 23 23 24 25 25 26 26 27 27 28 29 30 30 31 32 32 32 33 34 35 36 36 37 37 38 39 40 40 40 41 42 43 44 45 45 45 45
25 25 25 24 24 24 24 24 25 25 26 26 27 28 29 30 30 31 31 32 33 33 33 34 36 37 38 38 39 40 41 41 42 42 43 43 44 45 46 46 47 47 48
26 26 25 25 25 25 26 26 26 27 27 28 29 30 31 31 32 32 33 33 34 35 35 36 37 38 39 40 41 42 43 44 44 45 46 46 47 48 48 49 49 50 50
27 26 26 26 26 26 26 27 28 28 29 30 31 32 32 33 33 33 34 34 35 36 37 39 39 40 41 42 43 44 45 46 47 47 48 48 49 49 50 50 51 51 52
28 28 27 28 28 27 28 28 29 30 31 32 32 33 33 34 34 35 36 36 37 38 39 40 41 42 43 44 45 46 46 47 47 48 48 49 49 50 51 51 51 51 52
29 29 29 29 28 29 29 30 31 32 32 33 33 33 34 35 36 37 38 39 39 40 41 42 42 43 45 46 46 46 47 47 48 49 49 49 50 51 51 52 52 53 53
30 30 30 30 30 31 31 32 33 33 33 33 34 34 35 36 37 38 39 40 41 42 42 43 43 44 45 46 46 46 47 48 49 49 50 51 51 52 52 53 54 55 54
30 30 31 31 32 33 33 33 34 34 34 35 36 36 37 37 38 39 40 41 42 42 43 44 45 46 46 46 47 47 48 49 50 51 52 53 54 53 53 54 54 54 54
30 31 32 32 33 34 34 35 35 35 36 36 38 39 39 40 39 39 40 41 42 43 44 45 47 47 47 48 48 49 50 51 52 53 53 53 54 54 53 53 53 52 51
32 32 33 34 34 35 35 36 36 37 37 38 39 41 41 41 41 40 41 42 43 44 46 47 48 48 49 49 50 52 52 52 52 52 52 52 52 53 53 52 51 50 49
34 34 34 35 35 36 37 37 37 38 39 40 41 42 42 42 43 44 43 43 44 46 48 49 49 50 50 51 52 52 53 53 53 53 52 51 51 51 51 51 50 50 48
35 36 36 36 36 37 37 38 38 39 40 41 42 42 43 44 45 45 46 46 46 47 49 50 51 51 51 52 53 53 53 52 52 52 51 50 50 50 49 48 48 48 48
37 37 37 37 38 38 38 39 40 40 41 42 42 43 44 45 46 47 48 48 49 49 50 51 51 51 52 53 53 52 51 51 50 50 49 49 49 48 47 46 47 47 47
38 38 38 38 38 38 39 40 40 41 42 43 44 44 45 47 47 48 49 50 50 50 50 50 51 52 53 52 51 50 50 49 49 48 48 48 48 47 47 46 47 47 45
39 39 39 39 40 40 40 41 41 42 43 44 45 45 46 47 48 49 50 51 52 51 49 50 51 52 51 50 49 49 48 47 48 48 47 47 47 47 46 46 46 45 43
40 40 40 41 41 41 42 42 43 44 45 45 45 46 47 48 49 50 51 52 53 52 51 50 50 50 49 48 48 48 47 47 47 47 47 46 46 46 45 45 44 42 40
41 41 41 42 42 42 43 43 44 45 45 45 46 46 47 48 50 51 52 53 53 52 51 49 49 48 47 47 47 47 46 46 46 47 45 45 44 45 45 43 41 38 37
42 42 42 42 43 43 44 44 45 45 45 46 46 47 48 50 51 52 53 52 52 50 50 48 47 47 46 46 47 46 45 46 46 45 44 44 44 44 43 41 37 36 35
43 43 43 43 43 43 44 44 45 45 46 46 47 48 50 51 52 52 52 51 49 49 48 48 47 46 46 46 46 45 46 46 45 44 44 43 42 42 41 38 36 34 34
44 44 44 44 43 44 44 44 45 46 46 47 48 49 50 51 51 51 50 48 48 47 47 47 47 46 46 46 45 44 44 43 43 43 43 42 41 40 39 36 35 33 32
44 44 44 44 44 43 44 46 46 46 46 47 48 50 50 50 50 49 48 46 47 47 47 46 46 45 45 44 44 43 42 42 42 42 40 40 39 38 36 34 33 32 31
44 44 44 44 44 44 45 46 46 46 47 47 48 49 49 48 48 47 46 46 46 46 46 45 45 44 44 44 43 42 42 41 40 39 38 38 37 36 34 32 31 30 29
44 44 44 45 45 45 46 47 47 47 47 48 48 48 48 47 47 45 45 45 45 45 44 44 44 43 43 43 43 42 41 41 40 38 38 37 36 35 33 32 29 28 27
44 44 44 45 45 45 46 47 47 47 47 47 48 48 46 46 45 45 44 43 43 43 43 44 43 43 43 43 42 41 41 40 39 38 37 35 33 32 32 30 27 26 26
45 45 45 45 45 45 46 47 47 46 46 46 46 46 45 45 44 44 43 42 42 42 43 42 43 43 42 41 40 40 39 38 37 35 33 32 30 29 28 27 25 24 23
45 45 45 45 45 45 45 46 46 45 45 45 45 44 44 43 42 42 41 41 41 41 41 41 42 42 41 39 38 37 36 35 34 31 30 29 28 27 25 23 22 22 21
Wind_Direction
272 274 277 279 282 284 286 288 289 292 293 293 294 295 296 297 298 297 298 298 299 299 299 299 298 298 298 299 298 298 297 297 296 296 295 294 293 293 292 292 291 290 289
272 274 276 279 281 283 285 288 289 291 293 294 296 297 298 298 299 299 299 299 299 299 300 300 299 299 299 299 299 298 298 298 297 296 295 294 294 293 293 293 292 291 290
273 274 275 278 281 283 285 288 289 291 293 295 296 297 297 298 299 299 300 300 300 300 300 300 300 300 300 299 299 299 298 298 297 297 296 295 294 293 293 293 292 291 290
271 272 274 277 280 283 286 288 288 290 293 294 295 296 297 297 298 299 300 301 301 301 301 300 300 300 300 300 300 300 299 298 298 297 296 295 295 294 294 294 293 292 291
271 272 275 278 281 284 286 287 289 291 292 293 294 296 296 297 298 299 300 301 301 302 302 302 301 301 301 301 301 300 299 299 298 298 298 297 296 296 296 295 294 293 292
271 274 276 278 281 283 285 288 289 291 292 293 294 295 297 298 299 299 299 300 301 302 302 302 302 302 302 302 301 301 300 299 299 299 299 298 298 298 297 297 295 293 292
271 274 276 279 281 284 286 288 289 291 292 292 294 295 296 298 299 299 299 300 301 302 302 302 302 303 303 302 302 301 300 300 300 300 299 298 298 298 298 297 296 294 292
271 274 276 279 282 285 287 288 289 290 292 293 294 295 296 297 298 299 300 301 302 302 302 303 303 303 304 303 302 302 301 301 301 300 300 299 299 299 299 298 298 296 294
271 274 277 279 282 285 287 288 289 290 292 293 295 296 297 297 297 299 300 301 302 303 303 303 303 303 303 303 303 302 302 302 302 301 301 301 301 300 300 300 299 298 296
270 274 277 279 282 285 287 289 290 291 292 293 295 297 298 299 299 299 300 301 302 303 304 304 304 304 304 304 303 303 303 304 304 303 304 303 302 301 301 300 300 299 298
271 274 277 280 282 285 287 289 290 291 293 294 295 297 298 299 300 300 300 301 302 303 304 304 304 304 304 305 305 305 305 304 304 304 305 304 303 303 302 301 300 299 299
272 274 276 279 283 285 286 288 289 291 292 294 296 297 298 299 300 300 300 301 301 303 304 304 304 304 304 305 305 305 305 305 305 305 305 304 304 304 304 303 302 301 300
271 274 276 279 282 284 286 287 290 291 293 294 295 296 298 299 300 301 301 301 302 303 304 303 303 303 304 305 305 306 306 306 306 306 306 305 305 305 304 303 303 303 301
271 274 276 279 282 284 286 288 290 291 293 294 295 296 297 299 300 301 302 302 303 304 304 303 303 304 304 304 305 306 306 306 307 307 307 306 306 306 305 304 305 304 302
271 274 277 279 282 284 286 288 289 291 293 294 295 296 298 299 300 301 303 303 304 304 304 303 304 305 305 304 305 305 306 306 307 308 308 307 308 308 307 306 306 306 304
272 275 277 279 281 284 286 288 290 292 293 294 295 296 297 298 300 302 303 304 304 304 305 305 305 305 305 304 305 306 306 307 308 308 308 308 309 310 309 308 308 307 306
273 275 277 279 282 284 286 288 290 292 292 293 294 295 297 299 301 302 303 303 304 304 305 306 306 306 305 305 306 307 307 307 308 309 309 309 310 311 312 310 309 308 307
272 275 278 280 283 285 287 289 291 292 292 293 294 295 297 299 301 302 302 303 303 303 304 306 306 306 306 306 307 307 307 308 308 309 309 310 311 312 313 312 310 309 308
272 275 278 280 282 284 286 288 290 291 292 293 295 296 298 300 301 302 302 302 302 303 304 306 307 307 306 307 307 307 307 307 308 308 310 310 311 312 313 312 310 309 309
272 275 277 279 281 284 286 288 290 291 293 294 296 298 299 301 301 302 302 302 302 303 304 305 307 306 306 307 307 307 307 307 309 309 310 310 311 312 313 312 310 310 310
273 275 277 278 280 283 286 288 290 291 293 295 297 298 300 301 302 302 301 301 302 303 304 305 306 305 306 307 306 307 308 308 310 310 310 311 313 314 314 312 311 310 311
272 274 276 278 280 283 286 288 290 292 293 295 298 299 300 301 302 302 301 302 302 303 304 305 306 306 306 307 308 308 308 308 309 310 311 312 312 313 314 314 313 311 310
271 273 276 279 280 283 286 288 290 291 293 295 297 299 300 301 301 301 301 302 303 305 305 306 308 308 308 308 308 308 308 309 310 310 310 311 311 312 313 312 311 310 310
270 272 276 278 281 283 286 288 290 291 293 294 296 298 299 300 300 300 301 302 304 305 306 307 308 308 309 309 309 308 308 309 311 311 310 311 311 312 312 311 310 310 310
271 273 276 278 280 283 286 288 290 291 292 294 295 297 298 299 299 299 300 302 303 304 306 307 308 309 309 309 309 309 309 310 311 312 311 311 312 312 313 312 310 310 310
272 274 276 278 279 282 285 287 289 289 291 292 294 296 297 298 298 300 300 302 303 304 305 306 308 309 309 308 308 309 310 312 314 314 312 313 313 313 314 314 314 314 314
Height
5835 5835 5835 5835 5834 5834 5833 5832 5831 5830 5829 5828 5827 5825 5824 5822 5820 5818 5816 5814 5811 5809 5806 5803 5801 5798 5795 5792 5789 5786 5783 5780 5777 5774 5771 5768 5765 5762 5759 5757 5754 5751 5748
5830 5831 5830 5830 5830 5829 5828 5828 5827 5826 5825 5823 5822 5820 5818 5816 5814 5812 5810 5807 5805 5802 5799 5796 5793 5790 5787 5784 5781 5777 5774 5771 5767 5764 5761 5757 5754 5751 5748 5745 5742 5739 5736
5825 5825 5825 5825 5825 5824 5824 5823 5822 5821 5819 5818 5816 5814 5812 5810 5808 5806 5803 5800 5798 5795 5792 5789 5786 5782 5779 5775 5772 5768 5764 5760 5757 5753 5749 5746 5742 5739 5735 5732 5729 5726 5723
5820 5820 5820 5820 5820 5819 5818 5818 5816 5815 5814 5812 5811 5809 5806 5804 5802 5799 5796 5793 5790 5787 5784 5781 5777 5773 5770 5766 5762 5758 5753 5749 5745 5741 5737 5733 5730 5726 5722 5718 5715 5711 5708
5814 5815 5815 5815 5814 5814 5813 5812 5811 5809 5808 5806 5805 5802 5800 5798 5795 5792 5789 5786 5783 5779 5776 5772 5768 5764 5760 5756 5751 5747 5742 5738 5733 5729 5725 5721 5717 5712 5708 5704 5701 5697 5694
5809 5809 5809 5809 5808 5808 5807 5806 5805 5803 5801 5800 5798 5796 5793 5791 5788 5785 5782 5778 5775 5771 5767 5763 5759 5754 5750 5745 5740 5735 5731 5726 5722 5717 5713 5708 5704 5699 5695 5690 5686 5682 5679
5803 5803 5803 5803 5802 5802 5801 5799 5798 5796 5794 5793 5791 5790 5787 5784 5781 5777 5774 5770 5767 5762 5758 5753 5749 5744 5740 5735 5730 5725 5720 5715 5710 5706 5701 5696 5691 5686 5681 5676 5671 5667 5663
5796 5796 5796 5796 5795 5795 5794 5792 5791 5789 5787 5785 5783 5781 5780 5778 5774 5770 5766 5762 5758 5753 5749 5744 5739 5734 5729 5724 5719 5714 5709 5704 5699 5693 5688 5682 5677 5672 5667 5661 5656 5651 5647
5790 5790 5790 5789 5789 5788 5787 5785 5783 5782 5780 5777 5775 5772 5769 5767 5765 5763 5758 5753 5749 5744 5739 5734 5729 5724 5719 5714 5709 5703 5698 5692 5686 5680 5675 5669 5663 5658 5652 5647 5641 5636 5632
5783 5783 5783 5782 5782 5780 5779 5778 5776 5774 5772 5770 5767 5763 5760 5756 5754 5752 5750 5745 5739 5734 5729 5724 5719 5713 5708 5703 5697 5691 5685 5679 5673 5667 5661 5656 5650 5644 5638 5633 5627 5623 5618
5776 5776 5776 5775 5774 5773 5772 5770 5768 5766 5764 5761 5758 5755 5751 5748 5743 5741 5739 5736 5731 5725 5719 5713 5708 5702 5697 5691 5685 5679 5673 5667 5661 5655 5649 5643 5637 5631 5625 5619 5614 5609 5605
5768 5768 5768 5767 5766 5765 5763 5762 5760 5758 5755 5752 5749 5745 5742 5739 5734 5730 5727 5724 5721 5716 5709 5702 5696 5690 5685 5679 5673 5667 5661 5654 5648 5642 5636 5630 5624 5619 5613 5607 5602 5596 5591
5760 5760 5760 5759 5758 5757 5755 5753 5751 5749 5746 5743 5740 5736 5733 5728 5724 5720 5716 5712 5709 5705 5698 5691 5684 5678 5673 5667 5661 5655 5649 5642 5636 5630 5624 5618 5613 5607 5601 5595 5590 5584 5579
5752 5752 5751 5750 5749 5748 5747 5745 5743 5740 5737 5734 5730 5727 5723 5719 5714 5709 5704 5700 5696 5693 5687 5680 5673 5666 5660 5654 5649 5643 5637 5631 5625 5619 5613 5607 5601 5595 5589 5583 5578 5573 5567
5743 5743 5742 5741 5740 5739 5738 5736 5733 5731 5728 5724 5721 5717 5713 5708 5704 5699 5693 5688 5683 5679 5676 5669 5662 5655 5648 5642 5637 5631 5626 5620 5614 5608 5602 5596 5590 5584 5577 5572 5567 5561 5556
5734 5734 5733 5732 5731 5730 5728 5726 5724 5721 5717 5714 5710 5706 5702 5698 5693 5688 5683 5677 5670 5665 5662 5657 5650 5643 5637 5631 5625 5620 5615 5609 5603 5597 5591 5585 5579 5573 5567 5561 5555 5550 5545
5725 5724 5724 5723 5722 5720 5718 5716 5713 5710 5707 5703 5700 5696 5692 5687 5683 5677 5671 5665 5659 5653 5649 5645 5638 5632 5626 5621 5615 5610 5604 5599 5593 5587 5581 5575 5569 5563 5557 5551 5545 5540 5536
5715 5715 5714 5713 5712 5710 5708 5706 5703 5700 5696 5693 5690 5686 5681 5677 5672 5666 5660 5654 5648 5642 5637 5633 5628 5622 5616 5610 5605 5600 5594 5588 5583 5577 5571 5565 5559 5553 5547 5541 5536 5531 5527
5705 5705 5704 5703 5702 5700 5698 5695 5692 5689 5686 5682 5679 5675 5670 5665 5660 5654 5648 5643 5637 5631 5626 5621 5617 5611 5606 5600 5595 5589 5584 5578 5573 5567 5562 5556 5550 5544 5538 5533 5528 5523 5519
5695 5694 5694 5693 5692 5690 5687 5685 5682 5679 5675 5672 5668 5664 5659 5654 5648 5643 5637 5632 5626 5621 5616 5610 5606 5601 5596 5590 5584 5579 5575 5569 5563 5557 5552 5547 5541 5535 5530 5525 5520 5516 5511
5684 5684 5683 5682 5681 5679 5677 5674 5671 5668 5665 5661 5657 5652 5647 5642 5636 5631 5626 5621 5616 5611 5605 5600 5595 5590 5585 5580 5574 5569 5565 5560 5555 5548 5543 5538 5533 5528 5522 5517 5512 5508 5504
5674 5673 5672 5671 5670 5668 5666 5663 5660 5658 5654 5650 5646 5641 5636 5631 5626 5621 5615 5611 5605 5600 5595 5590 5585 5580 5575 5569 5564 5559 5554 5550 5546 5541 5535 5530 5525 5520 5515 5510 5506 5501 5497
5663 5662 5662 5661 5659 5657 5655 5652 5649 5647 5643 5639 5635 5631 5626 5621 5616 5611 5606 5601 5596 5590 5584 5580 5575 5570 5565 5560 5555 5550 5545 5540 5535 5531 5526 5522 5517 5512 5508 5503 5499 5495 5491
5652 5651 5651 5649 5648 5646 5644 5641 5639 5636 5632 5628 5624 5620 5615 5611 5605 5601 5597 5592 5587 5581 5576 5571 5566 5560 5555 5550 5545 5540 5535 5531 5526 5521 5516 5514 5510 5505 5501 5497 5493 5489 5486
5640 5640 5639 5638 5637 5635 5633 5630 5627 5624 5621 5617 5613 5609 5604 5600 5596 5591 5587 5583 5579 5573 5567 5562 5557 5551 5546 5541 5536 5531 5527 5523 5519 5515 5509 5506 5503 5499 5495 5491 5487 5484 5481
5629 5628 5627 5626 5625 5623 5621 5619 5616 5613 5611 5607 5603 5599 5594 5590 5585 5581 5578 5574 5570 5565 5559 5554 5549 5543 5538 5533 5528 5523 5519 5515 5511 5508 5503 5499 5496 5493 5491 5487 5483 5480 5477